This demonstration page uses our WeatherBlox Daily Observations layout. Learn more.

Left ArrowRight Arrow

39.12711, -84.51439

Hourly Observations for June 12, 2018

Temp ( °F °C ) Dew Point ( °F °C ) Humidity (%) Winds ( mph kmh ) Pressure ( in mb ) Visibility ( mi km ) Precip ( " mm )
12:53 am 00:53 Cloudy 67 19.4 67 19.4 100 100 N N/A 29.96 1014 9 14 N/A
1:53 am 01:53 Mostly Cloudy 68 20 68 20 100 100 WSW 3 6 29.96 1015 9 14 N/A
2:53 am 02:53 Cloudy 70 21.1 69 20.6 97 97 ESE 5 7 29.96 1014 10 16 N/A
4:36 am 04:36 Cloudy with Light Rain 70 21.1 69 20.6 97 97 N N/A 29.94 1014 7 11 0.03 0.76
4:46 am 04:46 Cloudy with Light Rain 70 21.1 70 21.1 100 100 W 6 9 29.97 1015 7 11 0.03 0.76
4:53 am 04:53 Cloudy with Light Rain 71 21.7 70 21.1 96 96 N 5 7 29.96 1015 8 13 0.03 0.76
5:25 am 05:25 Mostly Cloudy with Light Rain 69 20.6 69 20.6 100 100 ESE 3 6 29.91 1013 6 10 0.05 1.27
5:53 am 05:53 Mostly Clear 69 20.6 69 20.6 100 100 S 5 7 29.93 1014 10 16 0.05 1.27
6:14 am 06:14 Mostly Cloudy 69 20.6 69 20.6 100 100 SSE 6 9 29.91 1013 10 16 N/A
6:53 am 06:53 Mostly Cloudy 70 21.1 69 20.6 97 97 VRB 5 7 29.93 1014 10 16 N/A
7:53 am 07:53 Cloudy 71 21.7 69 20.6 94 94 SE 3 6 29.96 1015 10 16 N/A
8:53 am 08:53 Cloudy 72 22.2 69 20.6 91 91 SSE 7 11 29.96 1015 10 16 N/A
9:53 am 09:53 Cloudy 73 22.8 70 21.1 90 90 S 7 11 29.98 1015 10 16 N/A
10:53 am 10:53 Cloudy 74 23.3 71 21.7 91 91 SW 3 6 29.98 1015 10 16 N/A
11:53 am 11:53 Cloudy 75 23.9 72 22.2 90 90 S 7 11 29.99 1016 10 16 N/A
12:53 pm 12:53 Mostly Cloudy 79 26.1 73 22.8 82 82 SW 6 9 29.99 1016 10 16 N/A
1:53 pm 13:53 Mostly Cloudy 79 26.1 71 21.7 77 77 SW 13 20 29.97 1015 10 16 N/A
2:53 pm 14:53 Sunny 80 26.7 70 21.1 71 71 S 10 17 29.93 1014 10 16 N/A
3:53 pm 15:53 Mostly Cloudy 80 26.7 70 21.1 71 71 S 8 13 29.93 1014 10 16 N/A
4:53 pm 16:53 Mostly Cloudy 81 27.2 71 21.7 72 72 N N/A 29.90 1013 10 16 N/A
5:53 pm 17:53 Mostly Cloudy 80 26.7 70 21.1 71 71 SSW 5 7 29.91 1013 10 16 N/A
6:53 pm 18:53 Cloudy with Light Rain 74 23.3 71 21.7 91 91 NE 6 9 29.91 1013 9 14 0.01 0.25
7:53 pm 19:53 Mostly Cloudy 73 22.8 70 21.1 90 90 NE 5 7 29.91 1013 10 16 N/A
8:53 pm 20:53 Mostly Cloudy 72 22.2 70 21.1 94 94 NNE 5 7 29.91 1013 10 16 N/A
9:53 pm 21:53 Cloudy with Rain 72 22.2 71 21.7 97 97 NNW 9 15 29.91 1013 4 6 0.07 1.78
9:56 pm 21:56 Cloudy with Heavy Rain 72 22.2 71 21.7 97 97 NNW 13 20 29.91 1013 2 3 0.13 3.30
10:02 pm 22:02 Cloudy with Thunderstorms 72 22.2 71 21.7 97 97 E 3 6 29.91 1013 2 3 0.20 5.08
10:31 pm 22:31 Cloudy with Heavy Rain 72 22.2 72 22.2 100 100 E 3 6 29.91 1013 5 8 0.33 8.38
10:46 pm 22:46 Cloudy 72 22.2 72 22.2 100 100 N N/A 29.91 1013 10 16 0.34 8.64
10:53 pm 22:53 Cloudy with Light Rain 72 22.2 72 22.2 100 100 W 5 7 29.93 1014 6 10 0.34 8.64
11:42 pm 23:42 Mostly Cloudy with Nearby Thunderstorms 71 21.7 71 21.7 100 100 SSW 5 7 29.91 1013 4 6 0.02 0.51
11:53 pm 23:53 Mostly Cloudy with Light Rain 72 22.2 72 22.2 100 100 SSW 6 9 29.94 1014 4 6 0.04 1.02

Powered by AerisWeather